Regional Weather Roundup
Issued by NWS

Home | Current Version | Previous Version | Text Only | Print | Product List | Glossary On
Versions: 1 2 3 4 5 6 7 8 9 10 11 12 13 14 15 16 17 18 19 20 21 22 23 24 25 26 27 28
000
ASUS45 KREV 250510
RWRNV
NEVADA REGIONAL WEATHER ROUNDUP
NATIONAL WEATHER SERVICE RENO NV
900 PM PST FRI FEB 24 2017

NOTE: "FAIR" INDICATES FEW OR NO CLOUDS BELOW 12,000 FEET WITH NO
SIGNIFICANT WEATHER AND/OR OBSTRUCTIONS TO VISIBILITY.

NVZ001-003-004-250600-
WESTERN NEVADA

CITY           SKY/WX    TMP DP  RH WIND       PRES   REMARKS
RENO           PTCLDY    32  17  54 W10       30.08R
CARSON CITY    CLOUDY    32  14  47 S3        30.09R
MINDEN         FAIR      30  14  51 SW3       30.08S
PYRAMID LAKE     N/A     34 N/A N/A S13         N/A
FALLON         MOCLDY    32  18  56 NE3       30.09R
LOVELOCK       MOCLDY    29  22  75 NW6       30.09R
HAWTHORNE      CLEAR     30  16  55 W5        30.08R
$$

NVZ002-CAZ072-073-250600-
NORTHERN AND CENTRAL SIERRA

CITY           SKY/WX    TMP DP  RH WIND       PRES   REMARKS
S. LAKE TAHOE  CLOUDY    24  14  65 S12       30.04R
TRUCKEE        CLOUDY    21  14  73 CALM      30.07R
SQUAW VLY 8000   N/A     16  16 100 SW7         N/A
MAMMOTH LAKES  CLOUDY    16   7  66 NE3       30.03S
BRIDGEPORT       N/A     18   4  54 CALM      29.98S
$$

NVZ030-031-036-250600-
NORTHERN NEVADA

CITY           SKY/WX    TMP DP  RH WIND       PRES   REMARKS
ELKO           CLEAR     22  11  62 NE6       30.07F
WINNEMUCCA     NOT AVBL
WENDOVER       CLEAR     25  10  54 CALM      30.13S
$$

NVZ035-037-250600-
CENTRAL NEVADA

CITY           SKY/WX    TMP DP  RH WIND       PRES   REMARKS
ELY            CLEAR      4  -1  80 MISG      30.06R
EUREKA           N/A     18   8  65 S6        30.05S
$$

NVZ013-014-250600-
SOUTH CENTRAL NEVADA

CITY           SKY/WX    TMP DP  RH WIND       PRES   REMARKS
TONOPAH        PTCLDY    25  16  68 SW5       30.06S
$$

NVZ017-020-022-250600-
SOUTHERN NEVADA

CITY           SKY/WX    TMP DP  RH WIND       PRES   REMARKS
LAS VEGAS      PTCLDY    46  12  25 E6        30.12R
N. LAS VEGAS   CLEAR     44  16  32 E5        30.13R
NELLIS AFB     CLEAR     43  21  41 NE7       30.14R
HENDERSON      CLEAR     41  20  43 S5        30.15R
MERCURY        CLEAR     35  20  54 CALM      30.10S
$$




USA.gov is the U.S. government's official web portal to all federal, state and local government web resources and services.